[[{"header":{"parameterUnit":"m.s-1","parameterCategory":1,"la1":30.2991,"la2":30.254,"lo1":-89.0895,"lo2":-89.0444,"dy":0.0017,"dx":0.0017,"nx":28,"ny":28,"refTime":"2023-10-25T21:00:00:Z","depth":0,"parameterNumber":2,"parameterNumberName":"U-component_of_WINDS"},"data":[0,0,0,0,0,0,0,0,0,0,0,0,0,0,0,0,0,0,0,0,0,0,0,0,0,0,0,0,0,0,0,0,0,0,0,0,0,0,0,0,0,0,0,0,0,0,0,0,0,0,0,0,0,0,0,0,0,0,-5.2128,-5.213,0,-5.2313,-5.2315,-5.2317,-5.2385,-5.2385,-5.2384,-5.2383,-5.2569,-5.2574,-5.258,0,0,0,0,0,0,0,0,0,0,0,0,0,-5.183,-5.1835,-5.2127,-5.213,-5.2132,-5.2313,-5.2315,-5.2318,-5.2385,-5.2385,-5.2384,-5.2383,-5.2567,-5.2574,-5.258,0,0,0,0,0,0,0,0,0,0,0,0,0,-5.1981,-5.1837,-5.2127,-5.2188,-5.2195,-5.2312,-5.2315,-5.2318,-5.2385,-5.2385,-5.2384,-5.2383,-5.2565,-5.2573,-5.2581,-5.265,0,0,-5.2606,-5.261,0,0,0,0,0,0,0,0,-5.1973,-5.1992,-5.2176,-5.2184,-5.2192,-5.2325,-5.2278,-5.2429,-5.2386,-5.2313,-5.2383,-5.2382,-5.2488,-5.2503,-5.2539,-5.2659,-5.2667,-5.2607,-5.2612,-5.2616,-5.2618,0,0,0,0,0,0,0,-5.1962,-5.1985,-5.2201,-5.2179,-5.2189,-5.2205,-5.2226,-5.2307,-5.2403,-5.2319,-5.2325,-5.2346,-5.2492,-5.2531,-5.2544,-5.267,-5.2607,-5.2614,-5.2619,-5.2623,-5.2858,-5.2859,0,0,0,0,0,0,-5.1942,-5.1976,-5.2195,-5.2206,-5.2078,-5.2211,-5.2234,-5.2283,-5.2403,-5.242,-5.2346,-5.2348,-5.2518,-5.2535,-5.2551,-5.2641,-5.2616,-5.2623,-5.2628,-5.2857,-5.2858,-5.286,0,0,0,0,0,0,-5.1935,-5.1961,-5.2187,-5.2093,-5.2123,-5.2217,-5.2272,-5.2287,-5.2326,-5.2423,-5.244,-5.2369,-5.2518,-5.2539,-5.2626,-5.2648,-5.2627,-5.2635,-5.2855,-5.2857,-5.2859,-5.282,0,0,0,0,0,0,-5.1927,-5.1958,-5.1985,-5.2093,-5.2127,-5.2259,-5.2273,-5.2292,-5.2341,-5.2345,-5.2449,-5.2465,-5.2519,-5.2613,-5.2634,-5.2659,-5.2641,-5.2853,-5.2856,-5.2858,-5.282,-5.2821,-5.2821,0,0,0,0,0,-5.1916,-5.1966,-5.1986,-5.2013,-5.2164,-5.226,-5.228,-5.2342,-5.2342,-5.2371,-5.2434,-5.2462,-5.2643,-5.2622,-5.2646,-5.2673,-5.2852,-5.2855,-5.2858,-5.2819,-5.282,-5.2821,0,0,0,0,0,0,-5.1856,-5.1981,-5.2005,-5.2092,-5.2165,-5.2272,-5.2309,-5.2341,-5.2414,-5.2415,-5.2488,-5.2511,-5.2592,-5.2642,-5.2616,-5.2748,-5.275,-5.2757,-5.2712,-5.2714,-5.2714,-5.27,-5.2648,0,0,0,0,0,-5.1854,-5.1923,-5.2028,-5.2094,-5.213,-5.2213,-5.2257,-5.2299,-5.2378,-5.2409,-5.2478,-5.2552,-5.2626,-5.2673,-5.2746,-5.2828,-5.2852,-5.286,-5.286,-5.286,-5.2866,-5.2914,-5.2919,-5.2869,-5.2869,-5.2869,0,0,-5.1848,-5.1924,-5.1963,-5.2084,-5.2146,-5.2215,-5.2238,-5.231,-5.2363,-5.2419,-5.2505,-5.2559,-5.2647,-5.2732,-5.2773,-5.2776,-5.2886,-5.2864,-5.2864,-5.2869,-5.2918,-5.2923,-5.2927,-5.2871,-5.2871,-5.287,0,0,-5.1873,-5.1938,-5.2001,-5.2064,-5.2158,-5.2214,-5.2229,-5.2332,-5.237,-5.2459,-5.2504,-5.2567,-5.2692,-5.2754,-5.2801,-5.2854,-5.2883,-5.2876,-5.2878,-5.2925,-5.2929,-5.2933,-5.2952,-5.2957,-5.2881,-5.2881,-5.2881,0,-5.1853,-5.196,-5.2029,-5.21,-5.2151,-5.2209,-5.2273,-5.233,-5.2443,-5.2478,-5.248,-5.2641,-5.2704,-5.2805,-5.2819,-5.2855,-5.2875,-5.2863,-5.2923,-5.2928,-5.2932,-5.2951,-5.2958,-5.288,-5.288,-5.288,-5.288,0,-5.1932,-5.2006,-5.2046,-5.2156,-5.2212,-5.2279,-5.2358,-5.2407,-5.2445,-5.25,-5.259,-5.2669,-5.276,-5.2788,-5.2824,-5.2895,-5.2894,-5.2909,-5.2912,-5.2934,-5.2953,-5.2961,-5.2878,-5.2878,-5.2879,-5.2879,0,0,-5.1921,-5.2072,-5.2085,-5.2136,-5.2247,-5.2305,-5.2375,-5.2466,-5.2507,-5.2584,-5.2645,-5.2752,-5.2768,-5.2822,-5.2866,-5.2907,-5.2945,-5.2918,-5.2921,-5.292,-5.3028,-5.3015,-5.3022,-5.2966,-5.2968,-5.2969,-5.3021,0,-5.1961,-5.209,-5.2155,-5.2256,-5.2326,-5.2383,-5.2445,-5.2519,-5.2573,-5.264,-5.27,-5.2775,-5.279,-5.2823,-5.2867,-5.2931,-5.2967,-5.2929,-5.3022,-5.3025,-5.2997,-5.3032,-5.3018,-5.3063,-5.3029,-5.303,-5.3031,0,-5.2023,-5.2102,-5.221,-5.2315,-5.2347,-5.24,-5.2491,-5.2554,-5.264,-5.2677,-5.2739,-5.2784,-5.286,-5.2859,-5.2966,-5.2938,-5.2981,-5.3019,-5.3022,-5.3031,-5.3028,-5.3042,-5.3079,-5.3085,-5.3043,-5.3042,-5.3041,0,-5.2005,-5.2138,-5.2221,-5.2263,-5.2387,-5.2424,-5.2477,-5.2562,-5.2614,-5.2692,-5.2727,-5.2812,-5.2859,-5.2925,-5.2991,-5.2985,-5.3092,-5.3096,-5.3124,-5.3122,-5.3142,-5.314,-5.3185,-5.3172,-5.3172,-5.3172,-5.3171,0,-5.2041,-5.2105,-5.2214,-5.2265,-5.2339,-5.2413,-5.2484,-5.2542,-5.2618,-5.268,-5.2735,-5.2793,-5.2878,-5.2946,-5.2999,-5.308,-5.3101,-5.3132,-5.3145,-5.3127,-5.3123,-5.3154,-5.3152,-5.3173,-5.3173,-5.3173,-5.3172,0,-5.2032,-5.2108,-5.2202,-5.2313,-5.2342,-5.2391,-5.2486,-5.2537,-5.2596,-5.2675,-5.2698,-5.2789,-5.2873,-5.2947,-5.3057,-5.3093,-5.3175,-5.3192,-5.3146,-5.3153,-5.3177,-5.3173,-5.3243,-5.3256,-5.3234,-5.3234,-5.3235,0,-5.2049,-5.2101,-5.2218,-5.2265,-5.2317,-5.2392,-5.2445,-5.2522,-5.2575,-5.2679,-5.2717,-5.2806,-5.288,-5.3011,-5.3087,-5.3172,-5.3191,-5.321,-5.3203,-5.3184,-5.319,-5.3186,-5.3192,-5.3208,-5.3208,-5.3208,-5.3208,0,-5.2073,-5.2109,-5.2184,-5.2274,-5.2337,-5.2411,-5.2486,-5.2521,-5.2612,-5.2669,-5.2756,-5.2814,-5.2928,-5.3015,-5.3109,-5.3164,-5.3201,-5.321,-5.3221,-5.3201,-5.3173,-5.3189,-5.3145,-5.3207,-5.3207,-5.3207,-5.3207,-5.3207,-5.2078,-5.2127,-5.2217,-5.23,-5.2366,-5.2436,-5.249,-5.2557,-5.2631,-5.273,-5.2771,-5.286,-5.2947,-5.3077,-5.3132,-5.3203,-5.3209,-5.3225,-5.3229,-5.3231,-5.3228,-5.3163,-5.322,-5.322,-5.3221,-5.3221,-5.3221,0,-5.2104,-5.2166,-5.2242,-5.2347,-5.2412,-5.2444,-5.253,-5.2582,-5.266,-5.2739,-5.2812,-5.2913,-5.2998,-5.3082,-5.3172,-5.3212,-5.3232,-5.3233,-5.323,-5.3242,-5.3217,-5.3198,-5.3216,-5.3216,-5.3216,-5.3216,-5.3216,-5.3216,-5.2125,-5.221,-5.2256,-5.2374,-5.2436,-5.2524,-5.257,-5.2635,-5.2699,-5.2809,-5.2881,-5.2936,-5.3017,-5.3114,-5.3193,-5.3216,-5.3246,-5.3243,-5.327,-5.3244,-5.3244,-5.3243,-5.3226,-5.3249,-5.3249,-5.3289,-5.329,-5.329]},{"header":{"parameterUnit":"m.s-1","parameterCategory":1,"la1":30.2991,"la2":30.254,"lo1":-89.0895,"lo2":-89.0444,"dy":0.0017,"dx":0.0017,"nx":28,"ny":28,"refTime":"2023-10-25T21:00:00:Z","depth":0,"parameterNumber":3,"parameterNumberName":"V-component_of_WINDS"},"data":[0,0,0,0,0,0,0,0,0,0,0,0,0,0,0,0,0,0,0,0,0,0,0,0,0,0,0,0,0,0,0,0,0,0,0,0,0,0,0,0,0,0,0,0,0,0,0,0,0,0,0,0,0,0,0,0,0,0,2.8743,2.8744,0,2.8835,2.8836,2.8837,2.8922,2.8923,2.8924,2.8925,2.9019,2.902,2.9022,0,0,0,0,0,0,0,0,0,0,0,0,0,2.864,2.8642,2.8743,2.8744,2.8745,2.8835,2.8836,2.8838,2.8922,2.8923,2.8925,2.8926,2.9018,2.902,2.9022,0,0,0,0,0,0,0,0,0,0,0,0,0,2.8704,2.8642,2.8742,2.8798,2.8804,2.8835,2.8836,2.8838,2.8922,2.8923,2.8925,2.8926,2.9018,2.902,2.9022,2.9006,0,0,2.9029,2.903,0,0,0,0,0,0,0,0,2.87,2.8708,2.8789,2.8794,2.8801,2.8869,2.8835,2.8894,2.8921,2.8877,2.8925,2.8927,2.8968,2.8974,2.8988,2.901,2.9014,2.903,2.9031,2.9032,2.9033,0,0,0,0,0,0,0,2.8696,2.8704,2.8779,2.879,2.8797,2.8819,2.883,2.8847,2.8912,2.8881,2.8887,2.8897,2.8971,2.8986,2.8991,2.9015,2.9029,2.9032,2.9033,2.9034,2.9033,2.9031,0,0,0,0,0,0,2.8683,2.87,2.8776,2.8782,2.8753,2.8819,2.8831,2.8845,2.8913,2.8924,2.8896,2.8901,2.8981,2.8988,2.8995,2.8982,2.9032,2.9034,2.9035,2.9034,2.9032,2.9031,0,0,0,0,0,0,2.868,2.8689,2.8773,2.8743,2.8755,2.8819,2.8835,2.8846,2.8861,2.8924,2.8936,2.8898,2.8983,2.8991,2.9003,2.8987,2.9035,2.9037,2.9036,2.9033,2.9031,2.8955,0,0,0,0,0,0,2.8677,2.8687,2.8681,2.8742,2.8756,2.8779,2.8833,2.8847,2.8865,2.8872,2.8929,2.894,2.8984,2.8999,2.9006,2.8991,2.9039,2.9037,2.9035,2.9032,2.896,2.8951,2.8943,0,0,0,0,0,2.8673,2.8655,2.868,2.8689,2.875,2.8778,2.8786,2.8838,2.8863,2.8858,2.8899,2.8938,2.8987,2.9,2.9008,2.8993,2.9039,2.9035,2.9032,2.8963,2.8953,2.8944,0,0,0,0,0,0,2.8589,2.8664,2.8693,2.8694,2.8729,2.8792,2.8787,2.8824,2.8852,2.8858,2.892,2.8933,2.8938,2.8967,2.8979,2.8983,2.9019,2.9017,2.8964,2.8954,2.8946,2.8939,2.9041,0,0,0,0,0,2.8571,2.8587,2.8652,2.8646,2.8663,2.8722,2.8736,2.8773,2.8811,2.8826,2.8868,2.8904,2.8929,2.8943,2.8968,2.8964,2.8979,2.8958,2.895,2.8943,2.8941,2.8945,2.8937,2.902,2.902,2.902,0,0,2.8533,2.8576,2.8582,2.8631,2.8662,2.8679,2.8733,2.8748,2.8761,2.8829,2.8843,2.8875,2.892,2.8925,2.8929,2.8949,2.8922,2.8939,2.8933,2.8935,2.8941,2.8933,2.8926,2.9018,2.9018,2.9019,0,0,2.8473,2.8506,2.8507,2.8538,2.8586,2.8626,2.8626,2.8684,2.8709,2.8725,2.8777,2.8793,2.8832,2.8863,2.8884,2.8839,2.8878,2.8845,2.8803,2.8806,2.8799,2.8794,2.878,2.8775,2.8843,2.8843,2.8843,0,2.842,2.8447,2.8503,2.8515,2.8536,2.8599,2.8602,2.8629,2.8682,2.8695,2.8717,2.877,2.8804,2.8819,2.8808,2.8822,2.8826,2.8839,2.8796,2.8791,2.8787,2.8775,2.8769,2.8839,2.8839,2.884,2.884,0,2.8381,2.8399,2.8394,2.8445,2.8465,2.8472,2.853,2.8544,2.858,2.8618,2.8635,2.8679,2.8715,2.8722,2.8755,2.8742,2.8753,2.8784,2.8822,2.8774,2.8764,2.8759,2.8833,2.8834,2.8836,2.8837,0,0,2.827,2.8354,2.8351,2.8377,2.8435,2.8451,2.8461,2.8498,2.851,2.8545,2.8557,2.8591,2.8621,2.8644,2.8683,2.8685,2.865,2.8717,2.8719,2.8705,2.8641,2.8619,2.8612,2.8676,2.8675,2.8675,2.8638,0,2.8221,2.8244,2.8296,2.8304,2.8323,2.8384,2.8394,2.8432,2.8468,2.849,2.853,2.8554,2.8591,2.8606,2.8611,2.8653,2.8639,2.8657,2.8689,2.869,2.8678,2.8606,2.8582,2.8545,2.8634,2.8634,2.8633,0,2.8167,2.82,2.821,2.827,2.828,2.8288,2.8328,2.8347,2.8392,2.8419,2.8446,2.8489,2.8506,2.854,2.8565,2.8576,2.8593,2.8616,2.8616,2.8622,2.8659,2.8612,2.8534,2.8529,2.8627,2.8627,2.8628,0,2.8088,2.8135,2.8147,2.8167,2.8237,2.8242,2.8271,2.8318,2.8338,2.8372,2.8386,2.8422,2.8442,2.8469,2.8522,2.8541,2.8542,2.858,2.8566,2.8564,2.8563,2.8563,2.8489,2.8571,2.8571,2.8571,2.8571,0,2.8029,2.8033,2.8113,2.8121,2.8128,2.8189,2.8194,2.823,2.8271,2.8288,2.8343,2.8358,2.8425,2.8449,2.849,2.8506,2.8514,2.8537,2.8548,2.8533,2.853,2.8545,2.855,2.857,2.857,2.8571,2.8571,0,2.7942,2.7996,2.8014,2.808,2.8097,2.8099,2.8156,2.8167,2.8207,2.8228,2.8236,2.83,2.833,2.8386,2.8431,2.8459,2.8467,2.8485,2.8452,2.8459,2.8443,2.8445,2.8377,2.8373,2.8455,2.8455,2.8454,0,2.7902,2.7907,2.7974,2.7989,2.8017,2.8041,2.8062,2.8122,2.8142,2.8196,2.82,2.8235,2.8267,2.8313,2.8363,2.8399,2.842,2.8394,2.8426,2.8411,2.8422,2.8422,2.8424,2.8387,2.8386,2.8385,2.8384,0,2.7825,2.7853,2.7881,2.7919,2.7943,2.7976,2.8012,2.8022,2.8091,2.8111,2.8143,2.8167,2.8215,2.825,2.8294,2.8325,2.8367,2.8374,2.8373,2.8358,2.834,2.8352,2.8434,2.8375,2.8376,2.8376,2.8377,2.8377,2.7763,2.7771,2.782,2.7851,2.7884,2.7917,2.7932,2.7975,2.8003,2.8047,2.8081,2.8111,2.8159,2.8222,2.8252,2.8277,2.8296,2.8294,2.8294,2.8293,2.8288,2.8334,2.8285,2.8285,2.8286,2.8286,2.8286,0,2.7691,2.7726,2.7754,2.7803,2.7828,2.7865,2.7907,2.7926,2.7952,2.7993,2.8023,2.8062,2.8097,2.8151,2.819,2.8201,2.8221,2.8209,2.821,2.8217,2.8267,2.8265,2.8192,2.8192,2.8192,2.8193,2.8193,2.8193,2.7657,2.7674,2.7707,2.7742,2.7778,2.7808,2.783,2.7861,2.7895,2.7936,2.7965,2.8,2.8048,2.8092,2.8126,2.8141,2.8154,2.8137,2.8158,2.8204,2.8213,2.8221,2.822,2.8139,2.8138,2.8106,2.8106,2.8105]}]]